Tracking 20040 objects as of 18-Nov-2019
Live streaming from Space Station
objects crossing your sky now

COSMOS 1766

Track COSMOS 1766 now!
10-day predictions
COSMOS 1766 is classified as:


NORAD ID: 16881
Int'l Code: 1986-055A
Perigee: 530.3 km
Apogee: 551.0 km
Inclination: 82.5 °
Period: 95.3 minutes
Semi major axis: 6911 km
RCS: 9.3716 m2 (large)
Launch date: July 28, 1986
Source: Commonwealth of Independent States (former USSR) (CIS)
Launch site: PLESETSK MISSILE AND SPACE COMPLEX (PKMTR)
aabbcc
Your satellite tracking list
Your tracking list is empty




NASA's NSSDC Master Catalog

Two Line Element Set (TLE):
1 16881U 86055A   19321.85185765 +.00001174 +00000-0 +68606-4 0  9992
2 16881 082.5085 238.6828 0014967 303.1264 056.8529 15.10888329793679
Source of the keplerian elements: AFSPC